Location: Waco, TX
(31.5480°N, 97.1670°W)
Time: 01:59:33
(UTC-05:00)

ISS - Pass Details

Date: 14 June 2018
Orbit: 402 x 406 km, 51.6° (Epoch: 22 June)

Event Time Altitude Azimuth Distance (km) Brightness Sun altitude
Rises 11:41:49 0° 218° (SW) 2,311 -0.1 64.9°
Reaches altitude 10° 11:43:54 10° 216° (SW) 1,455 -1.0 65.3°
Maximum altitude 11:47:08 67° 134° (SE) 442 -1.4 66.0°
Drops below altitude 10° 11:50:24 10° 50° (NE) 1,462 -0.7 66.7°
Sets 11:52:29 0° 48° (NE) 2,324 0.2 67.1°
